Camp Point, IL

8:10 PM CST on December 07, 2016 (GMT -0600)
Quincy Regional-Baldwin

Weather History for KUIN - February, 2012

Change the Weather History Date:

Friday, February 10, 2012

  Actual Average Record
Temperature  
Mean Temperature 27 °F 29 °F  
Max Temperature 35 °F 37 °F 74 °F (1932)
Min Temperature 18 °F 21 °F -10 °F (1982)
Degree Days  
Heating Degree Days 38 36  
Month to date heating degree days 367  
Since 1 July heating degree days 3753  
Cooling Degree Days 0 0  
Month to date cooling degree days 0  
Year to date cooling degree days 0  
Moisture  
Dew Point 21 °F    
Average Humidity 74    
Maximum Humidity 82    
Minimum Humidity 63    
Precipitation  
Precipitation 0.00 in 0.07 in 0.88 in (1939)
Month to date precipitation 0.57  
Year to date precipitation 2.09  
Sea Level Pressure  
Sea Level Pressure 30.11 in    
Wind  
Wind Speed 12 mph (WNW)    
Max Wind Speed 24 mph    
Max Gust Speed 31 mph    
Visibility 9 miles    
Events Rain    
T = Trace of Precipitation, MM = Missing Value Source: NWS Daily Summary

Daily Weather History Graph

Daily Weather History Graph

Search for Another Location

Airport or City:

Trip Planner

Search our weather history database for the weather conditions in past years. The results will help you decide how hot, cold, wet, or windy it might be!

Date:

Astronomy

Feb. 10, 2012 Rise Set
Actual Time 7:04 AM CST 5:34 PM CST
Civil Twilight 6:36 AM CST 6:02 PM CST
Nautical Twilight 6:04 AM CST 6:34 PM CST
Astronomical Twilight 5:32 AM CST 7:05 PM CST
Moon 9:12 PM CST (2/10) 8:13 AM CST (2/10)
Length of Visible Light 11h 26m
Length of Day
10h 30m
Waning Gibbous, 90% of the Moon is Illuminated
Feb 10
Waning Gibbous
Feb 14
Last Quarter
Feb 21
New
Feb 29
First Quarter
Mar 8
Full

Hourly Weather History & Observations

Time (CST) Temp. Windchill Dew Point Humidity Pressure Visibility Wind Dir Wind Speed Gust Speed Precip Events Conditions
12:54 AM 33.1 °F 26.1 °F 28.0 °F 82% 30.11 in 10.0 mi South 8.1 mph - N/A   Overcast
1:54 AM 33.1 °F 27.7 °F 28.0 °F 82% 30.09 in 10.0 mi SSW 5.8 mph - N/A   Overcast
2:54 AM 33.1 °F 27.7 °F 28.0 °F 82% 30.06 in 10.0 mi South 5.8 mph - N/A   Overcast
3:54 AM 33.1 °F 26.9 °F 28.0 °F 82% 30.04 in 10.0 mi South 6.9 mph - N/A   Overcast
4:54 AM 33.1 °F 26.9 °F 28.0 °F 82% 30.03 in 10.0 mi SSW 6.9 mph - N/A   Overcast
5:08 AM 33.8 °F 27.0 °F 28.4 °F 81% 30.00 in 10.0 mi SSW 8.1 mph - N/A   Overcast
5:30 AM 33.8 °F 27.7 °F 28.4 °F 81% 30.00 in 10.0 mi SSW 6.9 mph - N/A   Overcast
5:54 AM 34.0 °F 28.0 °F 28.9 °F 82% 30.01 in 10.0 mi SSW 6.9 mph - N/A   Overcast
6:54 AM 35.1 °F 27.9 °F 28.9 °F 78% 30.00 in 9.0 mi SSW 9.2 mph - N/A   Overcast
7:39 AM 33.8 °F 29.6 °F 28.4 °F 81% 30.00 in 8.0 mi SW 4.6 mph - N/A   Overcast
7:54 AM 35.1 °F 31.0 °F 28.9 °F 78% 30.02 in 7.0 mi SW 4.6 mph - N/A   Overcast
8:54 AM 35.1 °F 29.3 °F 30.0 °F 82% 30.03 in 5.0 mi West 6.9 mph - 0.00 in Rain Light Rain
9:22 AM 35.6 °F 28.0 °F 30.2 °F 81% 30.01 in 4.0 mi WNW 10.4 mph - 0.00 in   Overcast
9:54 AM 33.1 °F 23.4 °F 28.0 °F 82% 30.03 in 4.0 mi NW 13.8 mph - 0.00 in   Haze
10:54 AM 32.0 °F 20.8 °F 27.0 °F 82% 30.04 in 6.0 mi NW 17.3 mph - N/A   Haze
11:54 AM 28.0 °F 14.9 °F 21.9 °F 78% 30.06 in 10.0 mi NNW 19.6 mph 26.5 mph 0.00 in   Overcast
12:20 PM 28.4 °F 15.4 °F 21.2 °F 74% 30.04 in 10.0 mi NW 19.6 mph - N/A   Overcast
12:54 PM 27.0 °F 13.5 °F 19.0 °F 72% 30.07 in 10.0 mi NNW 19.6 mph 26.5 mph N/A   Overcast
1:39 PM 24.8 °F 10.0 °F 15.8 °F 69% 30.07 in 10.0 mi NW 21.9 mph - N/A   Overcast
1:54 PM 26.1 °F 11.3 °F 16.0 °F 66% 30.09 in 10.0 mi NW 23.0 mph 27.6 mph N/A   Overcast
2:11 PM 26.6 °F 13.8 °F 15.8 °F 64% 30.07 in 10.0 mi NW 17.3 mph 27.6 mph N/A   Overcast
2:26 PM 26.6 °F 13.4 °F 15.8 °F 64% 30.08 in 10.0 mi NNW 18.4 mph 29.9 mph N/A   Overcast
2:54 PM 25.0 °F 10.9 °F 15.1 °F 66% 30.12 in 10.0 mi NNW 19.6 mph 29.9 mph N/A   Overcast
3:44 PM 24.8 °F 10.0 °F 14.0 °F 64% 30.11 in 10.0 mi NW 21.9 mph 29.9 mph N/A   Overcast
3:54 PM 25.0 °F 10.6 °F 14.0 °F 63% 30.14 in 10.0 mi NNW 20.7 mph 27.6 mph N/A   Overcast
4:54 PM 23.0 °F 6.9 °F 12.9 °F 65% 30.18 in 10.0 mi NW 24.2 mph 31.1 mph N/A   Overcast
5:54 PM 21.0 °F 4.6 °F 12.0 °F 68% 30.21 in 10.0 mi NW 23.0 mph 31.1 mph N/A   Overcast
6:54 PM 21.0 °F 5.4 °F 12.0 °F 68% 30.24 in 10.0 mi NW 20.7 mph 28.8 mph N/A   Overcast
7:54 PM 21.0 °F 5.7 °F 12.0 °F 68% 30.26 in 10.0 mi NW 19.6 mph 25.3 mph N/A   Overcast
8:54 PM 21.0 °F 5.4 °F 10.9 °F 65% 30.29 in 10.0 mi NW 20.7 mph 31.1 mph N/A   Overcast
9:54 PM 19.9 °F 2.8 °F 10.9 °F 68% 30.32 in 10.0 mi NW 24.2 mph 28.8 mph N/A   Overcast
10:54 PM 19.9 °F 3.5 °F 10.9 °F 68% 30.34 in 10.0 mi NNW 21.9 mph - N/A   Overcast
11:54 PM 18.0 °F 0.9 °F 10.0 °F 71% 30.36 in 10.0 mi NNW 21.9 mph - N/A   Mostly Cloudy